www.pogodaiklimat.ru

Погода и климат >> Архив погоды >> Россия >> Карачаево-Черкессия >> Черкесск


ПОГОДА в Черкесске

АРХИВ ПОГОДЫ в Черкесске

Время (UTC), дата Ветер
(напр.,м/с)
 
Видим.   Явления Облачность Т
(С)
Тd
(С)
f
(%)
Тe
(С)
Тes
(С)
Комфортность P
(гПа)
Po
(гПа)
Тmin
(С)
Tmax
(С)
R
(мм)
R24
(мм)
S
(см)
06 16.08 Ю 2 20 км 4/0
[Ac lent Cc]
+29.2 +14.3 40 +31 +38 жарко 1006.2 945.1
09 16.08 В 1 20 км 4/1 600 м
[Sc Ac cast Cc]
+34.4 +10.7 24 +34 +48 очень
жарко
1003.2 943.2
12 16.08 СЗ 5
{12}
20 км 4/1 600 м
[Sc Ac cast Cc]
+33.9 +12.7 28 +34 +38 очень
жарко
1003.1 943.1
15 16.08 С 3
{10}
20 км 8/5 600 м
[Sc Ac cast Cc]
+29.8 +11.9 33 +30 +31 жарко 1004.0 943.2 +34.8
18 16.08 В 3 4000 м 10/10 600 м
[Cb cap]
+25.5 +16.9 59 +29 +29 душно 1005.1 943.5
21 16.08 ЮЗ 3 4000 м гроза, ливневой дождь 10/10 600 м
[Cb cap]
+21.4 +18.7 85 +26 +26 душно 1009.2 946.5
00 17.08 штиль 0 4000 м {гроза, ливн. осадки} ясно +19.4 +18.5 95 +22 +22 комфорт 1006.6 943.7
03 17.08 СЗ 3 4000 м дымка 10/10 600 м
[St]
+19.5 +18.8 96 +22 +22 комфорт 1008.7 945.7 +18.2 3
06 17.08 Ю 1 4000 м дымка 9/8 600 м
[St Ac cast]
+21.0 +18.6 86 +27 +28 душно 1009.1 946.4
09 17.08 З 3 10 км в посл. час ливневой дождь 10/10 600 м
[Cb cap]
+24.5 +17.7 66 +29 +29 душно 1008.7 946.7
12 17.08 штиль 0 10 км в посл. час ливневой дождь {гроза} 9/8 600 м
[Cb cap Ac trans Cc]
+23.2 +21.4 90 +31 +33 очень
душно
1009.1 946.9
15 17.08 С 2 10 км 8/5 600 м
[Cu med, cong Ac trans Ci fib]
+24.5 +18.5 69 +29 +29 душно 1008.7 946.7 +26.0 0.5
18 17.08 СЗ 1 4000 м 9/5 600 м
[Sc Ac trans Ci fib]
+21.6 +19.3 87 +27 +27 душно 1010.4 947.7
21 17.08 штиль 0 4000 м 10/4 600 м
[Sc Ci fib]
+20.0 +19.4 96 +23 +23 комфорт 1009.2 946.3
00 18.08 СЗ 1 4000 м 8/0
[Ci fib]
+19.2 +18.5 96 +22 +22 комфорт 1009.3 946.1
03 18.08 штиль 0 4000 м дымка {ливн. осадки} 10/10 600 м
[Cb cap]
+19.5 +18.8 96 +22 +22 комфорт 1009.1 946.1 +19.0 0.0
06 18.08 В 1 4000 м дымка {ливн. осадки} 10/8 600 м
[Sc Ac As]
+21.2 +18.9 87 +26 +26 душно 1008.9 946.2
09 18.08 ЮЗ 1 10 км {ливн. осадки} 10/10 600 м
[Sc]
+22.2 +19.2 83 +28 +28 душно 1008.8 946.3
12 18.08 штиль 0 10 км {ливн. осадки} 10/10 600 м
[Sc]
+24.5 +18.6 70 +29 +29 душно 1008.7 946.7
15 18.08 Ю 1 10 км 10/8 600 м
[Sc Ci fib]
+26.0 +17.5 59 +30 +30 душно 1008.8 947.0 +26.6
18 18.08 З 3 4000 м 10/10 600 м
[Sc]
+23.5 +19.0 76 +28 +28 душно 1011.1 948.8
21 18.08 штиль 0 4000 м 10/10 600 м
[Sc]
+21.4 +20.1 92 +27 +27 душно 1012.2 949.4
00 19.08 СЗ 2 4000 м 10/10 600 м
[Sc]
+20.3 +19.7 96 +25 +25 комфорт 1013.0 949.9
03 19.08 штиль 0 4000 м дымка 10/10 600 м
[Sc]
+19.6 +19.2 98 +22 +22 комфорт 1014.3 950.9 +19.6
06 19.08 СВ 1 10 км 10/5 600 м
[Cu Sc Ac cast Ci fib]
+22.8 +19.0 79 +29 +31 очень
душно
1014.5 951.8 +19.5
09 19.08 СВ 2 10 км 3/3 600 м
[Cu med, cong]
+28.7 +15.9 46 +32 +43 душно 1013.3 951.7
12 19.08 СВ 2 10 км 8/8 600 м
[Cu Sc]
+30.9 +13.3 34 +32 +34 жарко 1012.6 951.5
15 19.08 СЗ 2 10 км 8/4 600 м
[Sc Ac trans]
+29.2 +15.6 44 +32 +32 душно 1013.1 951.7 +31.3
18 19.08 ЮВ 1 4000 м ясно +24.3 +16.2 61 +28 +28 душно 1015.3 952.8
21 19.08 Ю 2 4000 м 10/0
[Ac cast Ci fib]
+21.2 +16.6 75 +25 +25 комфорт 1016.0 952.8
00 20.08 ЮЗ 1 4000 м 10/3 600 м
[Sc Ac trans Ci fib]
+19.6 +17.1 85 +23 +23 комфорт 1016.4 952.9
03 20.08 Ю 1 10 км 4/0
[Ac lent Ci fib]
+18.6 +17.0 90 +21 +21 комфорт 1017.3 953.5 +17.5
06 20.08 ЮВ 1 10 км 10/0
[Ac lent Cc]
+26.2 +16.8 56 +30 +36 душно 1015.7 953.5
09 20.08 СВ 1 10 км 5/0
[Ci fib]
+31.1 +13.0 33 +32 +49 жарко 1014.1 952.9
12 20.08 ЮЗ 3 10 км 10/10 600 м
[Sc]
+30.1 +13.5 36 +32 +32 жарко 1014.8 953.4
15 20.08 ЮВ 1 10 км 9/8 600 м
[Cb cap Ac cast Cc]
+30.7 +13.3 35 +32 +32 жарко 1012.8 951.7 +33.6
18 20.08 Ю 2 4000 м ясно +24.4 +15.5 58 +27 +27 жарко 1015.2 952.7
21 20.08 Ю 3 4000 м 10/0
[Ci]
+23.6 +16.4 64 +27 +27 жарко 1015.4 952.7
00 21.08 Ю 2 4000 м 10/0
[Ci fib]
+20.9 +16.9 78 +25 +25 комфорт 1014.7 951.5
03 21.08 штиль 0 10 км 10/3 600 м
[Sc Ci fib]
+19.0 +16.7 87 +20 +21 тепло 1015.1 951.5 +19.0
06 21.08 ЮВ 1 10 км 6/3 600 м
[Sc Ac cast Cc]
+28.1 +15.7 47 +31 +36 душно 1013.2 951.5 +19.0
09 21.08 В 3 20 км 5/0
[Cc]
+32.9 +8.9 23 +32 +43 жарко 1010.7 950.0
12 21.08 В 3 20 км 3/0
[Cc]
+33.5 +13.1 29 +34 +42 очень
жарко
1008.7 948.3
15 21.08 В 3
{10}
20 км 8/0
[Ci]
+32.1 +13.6 33 +33 +34 жарко 1008.7 948.1 +33.7
18 21.08 В 2 4000 м 3/0
[Ci fib]
+27.2 +16.2 51 +31 +31 душно 1009.8 948.2
21 21.08 В 3 4000 м ясно +24.3 +9.3 39 +25 +25 комфорт 1010.5 948.1
00 22.08 Ю 1 4000 м ясно +18.8 +12.6 67 +21 +21 комфорт 1011.7 948.2
03 22.08 В 2 10 км 3/1 600 м
[Sc Ac trans Ci fib]
+19.0 +12.5 66 +21 +21 комфорт 1011.5 948.0 +18.1
06 22.08 ЮВ 2 20 км 3/0
[Cc]
+25.3 +10.5 39 +26 +34 жарко 1010.5 948.3
09 22.08 В 5
{11}
20 км 3/3 600 м
[Cu Sc Ac lent Ci fib]
+30.1 +10.3 29 +30 +36 жарко 1009.0 947.9
12 22.08 В 5
{11}
20 км 8/5 600 м
[Cu Sc Ac lent Ci fib]
+32.2 +8.6 23 +31 +33 жарко 1008.5 947.8
15 22.08 В 2
{11}
20 км 10/10 600 м
[Cb cap]
+29.5 +8.1 26 +29 +29 жарко 1009.0 947.8 +32.7
18 22.08 ЮЗ 1 4000 м ясно +22.6 +11.7 50 +25 +25 комфорт 1012.0 949.2
21 22.08 Ю 1 4000 м ясно +19.7 +11.6 60 +22 +22 комфорт 1012.3 948.9
00 23.08 Ю 2 4000 м 10/0
[Ci fib]
+19.8 +13.7 68 +22 +22 комфорт 1012.3 949.0
03 23.08 СЗ 1 10 км 10/6 600 м
[Cb cap Ci fib]
+16.0 +12.3 79 +17 +17 по сезону 1013.8 949.6 +15.6

 

Местоположение метеостанции Черкесск (Карачаево-Черкессия, Россия): широта 44.22 долгота 42.07 высота над уровнем моря 525 м.

В архиве по умолчанию представлена погода в Черкесске за последнюю неделю. Архивные данные за месяц целиком и за предыдущие месяцы, начиная с января 2011 года, Вы можете получить, выбрав интересующий диапазон дат из раскрывающегося списка и нажав кнопку "Ввод!".


*Определитесь, кто Вы:
робот инопланетянин человек

Внимание! Время в таблицах - всемирное. Для получения местного времени необходимо прибавить поправку, которая равна 3 ч.

Смотрите также архив погоды в соседних городах и на ближайших метеорологических станциях:

Погода в Невинномысске (Ставропольский край, Россия) (46 км)
Погода в Отрадной (Краснодарский край, Россия) (51 км)
Погода в Зеленчукской (Карачаево-Черкессия, Россия) (56 км)
Погода в Кисловодске (Ставропольский край, Россия) (63 км)
Погода в Шаджатмазе (Карачаево-Черкессия, Россия) (73 км)
Погода в Минеральных Водах (Ставропольский край, Россия) (82 км)
Погода в Архызе (Карачаево-Черкессия, Россия) (86 км)
Погода в Теберде (Карачаево-Черкессия, Россия) (90 км)
Погода в Александровском (Ставропольский край, Россия) (92 км)
Погода в Домбае (Карачаево-Черкессия, Россия) (97 км)

Пояснения к столбцам:

Ветер - указаны скорость ветра в м/с - средняя за 10 мин, порывы в срок и между сроками (в фигурных скобках) и направление, откуда дует ветер: С - северный, СВ - северо-восточный, В - восточный, ЮВ - юго-восточный, Ю - южный, ЮЗ - юго-западный, З - западный, СЗ - северо-западный.
Видимость - горизонтальная дальность видимости в метрах или километрах. При видимости от 1 до 10 км при отсутствии осадков обычно наблюдается дымка, при ухудшении видимости до 1 км и менее - туман. В сухую погоду видимость может ухудшаться дымом, пылью или мглою.
Явления - указаны атмосферные явления, наблюдавшиеся в срок или в последний час перед сроком; фигурными скобками обозначены явления, наблюдавшиеся между сроками (за 1-3 часа до срока); квадратными скобками обозначены град или гололедные отложения с указанием их диаметра в мм.
Облачность - указаны через наклонную черту общая и нижняя облачность в баллах и высота нижней границы облаков в метрах; квадратными скобками обозначены формы облаков: Ci - перистые, Cs - перисто-слоистые, Cc - перисто-кучевые, Ac - высококучевые, As - высокослоистые, Sc - слоисто-кучевые, Ns - слоисто-дождевые, Cu - кучевые, Cb - кучево-дождевые. Подробнее классификацию облаков см. в Атласе облаков (PDF).
T - Температура воздуха - температура, измеренная на высоте 2 м над землей.
Td - Температура точки росы - температура, при понижении до которой содержащийся в воздухе водяной пар достигнет насыщения.
f - Относительная влажность воздуха - влажноcть воздуха, измеренная на высоте 2 м над землей.
Te - Эффективная температура - температура, которую ощущает одетый по сезону человек в тени. Характеристика душности погоды. При расчете учитывается влияние влажности воздуха и скорости ветра на теплоощущения человека.
Tes - Эффективная температура на солнце - температура, которую ощущает человек, с поправкой на солнечный нагрев. Характеристика знойности погоды. Зависит от высоты солнца над горизонтом, облачности и скорости ветра. Ночью, в пасмурную погоду, а также при ветре 12 м/с и более поправка равна нулю.
P - Атмосферное давление - приведенное к уровню моря атмосферное давление.
Po - Атмосферное давление - измеренное на уровне метеостанции атмосферное давление.
Tmin - Минимальная температура - минимум температуры воздуха на высоте 2 м над землей.
Tmax - Максимальная температура - максимум температуры воздуха на высоте 2 м над землей.
R - Количество осадков - Количество выпавших осадков за период времени, мм. При наведении курсора мыши на число - период времени, за который выпало указанное количество осадков.
R24 - Количество осадков - Количество выпавших осадков за 24 часа, мм.
S - Снежный покров - Высота снежного покрова, см. При наведении курсора мыши на число - состояние снежного покрова и степень покрытия местности в баллах.